TimeEST,TemperatureF,Dew PointF,Humidity,Sea Level PressureIn,VisibilityMPH,Wind Direction,Wind SpeedMPH,Gust SpeedMPH,PrecipitationIn,Events,Conditions,WindDirDegrees,DateUTC
12:53 AM,46.0,39.9,79,30.09,10.0,NNW,5.8,-,N/A,,Partly Cloudy,330,2011-11-10 05:53:00
1:53 AM,46.0,37.9,73,30.10,10.0,NNW,11.5,21.9,N/A,,Scattered Clouds,340,2011-11-10 06:53:00
2:53 AM,44.1,37.0,76,30.11,10.0,North,8.1,-,N/A,,Mostly Cloudy,350,2011-11-10 07:53:00
3:53 AM,43.0,36.0,76,30.09,10.0,North,8.1,-,N/A,,Scattered Clouds,350,2011-11-10 08:53:00
4:53 AM,42.1,36.0,79,30.11,10.0,NNW,5.8,-,N/A,,Mostly Cloudy,340,2011-11-10 09:53:00
5:53 AM,42.8,35.6,76,30.13,10.0,NNW,6.9,-,N/A,,Mostly Cloudy,330,2011-11-10 10:53:00
6:53 AM,43.0,35.1,74,30.13,10.0,NNW,11.5,-,N/A,,Mostly Cloudy,340,2011-11-10 11:53:00
7:53 AM,44.6,35.6,71,30.13,10.0,North,10.4,-,N/A,,Mostly Cloudy,350,2011-11-10 12:53:00
8:53 AM,45.0,34.0,65,30.15,10.0,North,11.5,-,N/A,,Mostly Cloudy,350,2011-11-10 13:53:00
9:53 AM,46.0,34.0,63,30.16,10.0,NNW,11.5,-,N/A,,Mostly Cloudy,330,2011-11-10 14:53:00
10:53 AM,48.9,32.0,52,30.16,10.0,North,8.1,-,N/A,,Mostly Cloudy,360,2011-11-10 15:53:00
11:53 AM,51.8,30.2,44,30.14,10.0,North,11.5,18.4,N/A,,Scattered Clouds,350,2011-11-10 16:53:00
12:53 PM,55.0,27.0,34,30.10,10.0,WNW,10.4,17.3,N/A,,Scattered Clouds,300,2011-11-10 17:53:00
1:53 PM,55.9,21.9,27,30.07,10.0,WNW,17.3,24.2,N/A,,Scattered Clouds,300,2011-11-10 18:53:00
2:53 PM,57.0,26.1,30,30.06,10.0,NW,11.5,20.7,N/A,,Scattered Clouds,320,2011-11-10 19:53:00
3:53 PM,55.4,26.6,33,30.06,10.0,NNW,9.2,-,N/A,,Partly Cloudy,330,2011-11-10 20:53:00
4:53 PM,53.1,24.1,32,30.06,10.0,West,12.7,20.7,N/A,,Partly Cloudy,280,2011-11-10 21:53:00
5:53 PM,50.0,19.9,31,30.07,10.0,NW,15.0,25.3,N/A,,Partly Cloudy,310,2011-11-10 22:53:00
6:53 PM,48.9,21.0,33,30.10,10.0,WNW,8.1,-,N/A,,Clear,300,2011-11-10 23:53:00
7:53 PM,46.0,19.9,35,30.12,10.0,NW,11.5,16.1,N/A,,Clear,310,2011-11-11 00:53:00
8:53 PM,46.9,19.0,33,30.14,10.0,NNW,21.9,28.8,N/A,,Clear,330,2011-11-11 01:53:00
9:53 PM,45.0,19.0,36,30.17,10.0,NNW,12.7,20.7,N/A,,Clear,340,2011-11-11 02:53:00
10:53 PM,42.1,19.0,40,30.17,10.0,North,4.6,-,N/A,,Clear,350,2011-11-11 03:53:00
11:53 PM,39.0,21.0,49,30.16,10.0,NW,4.6,-,N/A,,Clear,320,2011-11-11 04:53:00